This is the latest recevied weather packets stored in our database for station/object K7KAZ. If no packets are shown the sender has not sent any weather packets the latest 10 day(s).
| Time | Temp. | Humidity | Pressure | Rain* | Wind** | Luminosity | Snow |
|---|---|---|---|---|---|---|---|
| 1777143193 | 23.89° C | 29% | 1012.8 hPa | 0 mm | - | 300 W/m² | - |
| 1777142890 | 24.44° C | 29% | 1012.8 hPa | 0 mm | - | 279 W/m² | - |
| 1777142585 | 24.44° C | 29% | 1013 hPa | 0 mm | - | 306 W/m² | - |
| 1777142284 | 24.44° C | 29% | 1012.9 hPa | 0 mm | - | 280 W/m² | - |
| 1777141982 | 24.44° C | 28% | 1013 hPa | 0 mm | - | 256 W/m² | - |
| 1777141679 | 24.44° C | 28% | 1012.8 hPa | 0 mm | - | 253 W/m² | - |
| 1777141377 | 25° C | 28% | 1012.9 hPa | 0 mm | - | 295 W/m² | - |
| 1777141073 | 24.44° C | 28% | 1013 hPa | 0 mm | - | 423 W/m² | - |
| 1777140771 | 25° C | 27% | 1012.8 hPa | 0 mm | - | 487 W/m² | - |
| 1777140467 | 24.44° C | 28% | 1013.2 hPa | 0 mm | - | 414 W/m² | - |
| 1777140165 | 23.89° C | 28% | 1013.2 hPa | 0 mm | - | 331 W/m² | - |
| 1777139862 | 23.89° C | 28% | 1013.2 hPa | 0 mm | - | 274 W/m² | - |
| 1777139560 | 23.89° C | 28% | 1012.9 hPa | 0 mm | - | 272 W/m² | - |
| 1777139258 | 23.89° C | 28% | 1013.3 hPa | 0 mm | - | 285 W/m² | - |
| 1777138957 | 23.89° C | 28% | 1013.2 hPa | 0 mm | - | 286 W/m² | - |
| 1777138653 | 23.89° C | 29% | 1013.2 hPa | 0 mm | - | 259 W/m² | - |
| 1777138347 | 23.89° C | 29% | 1013 hPa | 0 mm | - | 256 W/m² | - |
| 1777138045 | 23.33° C | 28% | 1012.8 hPa | 0 mm | - | 231 W/m² | - |
| 1777137740 | 23.89° C | 28% | 1013 hPa | 0 mm | - | 230 W/m² | - |
| 1777137437 | 23.33° C | 28% | 1012.8 hPa | 0 mm | - | 253 W/m² | - |
| 1777137134 | 23.89° C | 27% | 1012.9 hPa | 0 mm | - | 250 W/m² | - |
| 1777136830 | 23.33° C | 28% | 1012.8 hPa | 0 mm | - | 243 W/m² | - |
| 1777136528 | 23.89° C | 28% | 1012.8 hPa | 0 mm | - | 247 W/m² | - |
| 1777136225 | 23.89° C | 28% | 1012.7 hPa | 0 mm | - | 239 W/m² | - |
| 1777135923 | 23.89° C | 28% | 1012.5 hPa | 0 mm | - | 256 W/m² | - |
* Rain latest hour (hover to see other rain measurements)
** Current wind speed in m/s (hover to see current wind gust speed)